Weather History for KLFK - February, 2012

Change the Weather History Date:

Saturday, February 18, 2012

  Actual Average Record
Temperature  
Mean Temperature 53 °F 53 °F  
Max Temperature 57 °F 64 °F 88 °F (1986)
Min Temperature 48 °F 42 °F 15 °F (1910)
Degree Days  
Heating Degree Days 12 12  
Month to date heating degree days 212 245  
Since 1 July heating degree days 1280 1525  
Cooling Degree Days 0 0  
Month to date cooling degree days 15 0  
Year to date cooling degree days 24 8  
Growing Degree Days 2 (Base 50)    
Moisture  
Dew Point 49 °F    
Average Humidity 87    
Maximum Humidity 93    
Minimum Humidity 80    
Precipitation  
Precipitation 1.59 in 0.14 in 1.80 in (1909)
Month to date precipitation 3.35 2.52  
Year to date precipitation 8.67 6.70  
Snow  
Snow 0.00 in - - ()
Month to date snowfall 0.0  
Since 1 July snowfall 0.0  
Snow Depth 0.00 in    
Sea Level Pressure  
Sea Level Pressure 29.84 in    
Wind  
Wind Speed 9 mph (NNE)    
Max Wind Speed 17 mph    
Max Gust Speed 28 mph    
Visibility 7 miles    
Events Rain    
T = Trace of Precipitation, MM = Missing Value Source: NWS Daily Summary

Daily Weather History Graph

Daily Weather History Graph

Search for Another Location

Airport or City:

Trip Planner

Search our weather history database for the weather conditions in past years. The results will help you decide how hot, cold, wet, or windy it might be!

Date:

Astronomy

Feb. 18, 2012 Rise Set
Actual Time 6:57 AM CST 6:08 PM CST
Civil Twilight 6:33 AM CST 6:33 PM CST
Nautical Twilight 6:04 AM CST 7:01 PM CST
Astronomical Twilight 5:36 AM CST 7:29 PM CST
Moon 4:28 AM CST (2/18) 3:14 PM CST (2/18)
Length of Visible Light 11h 59m
Length of Day
11h 10m
Waning Crescent, 11% of the Moon is Illuminated
Feb 18
Waning Crescent
Feb 21
New
Feb 29
First Quarter
Mar 8
Full
Mar 14
Last Quarter

Hourly Weather History & Observations

Time (CST) Temp. Dew Point Humidity Pressure Visibility Wind Dir Wind Speed Gust Speed Precip Events Conditions
12:53 AM 55.9 °F 50.0 °F 80% 29.96 in 5.0 mi Calm Calm - 0.04 in Rain Heavy Rain
1:53 AM 55.0 °F 51.1 °F 86% 29.90 in 9.0 mi East 8.1 mph - 0.02 in Rain Light Rain
2:53 AM 55.0 °F 51.1 °F 86% 29.87 in 10.0 mi NE 6.9 mph - 0.03 in Rain Light Rain
3:53 AM 54.0 °F 51.1 °F 90% 29.82 in 10.0 mi ENE 13.8 mph - 0.01 in   Overcast
4:48 AM 53.6 °F 51.8 °F 94% 29.83 in 1.8 mi NNE 9.2 mph - 0.33 in Rain Heavy Rain
4:53 AM 53.1 °F 51.1 °F 93% 29.81 in 1.5 mi North 12.7 mph - 0.38 in Rain Heavy Rain
4:58 AM 53.6 °F 51.8 °F 94% 29.84 in 3.0 mi North 9.2 mph - 0.02 in Rain Heavy Rain
5:31 AM 53.6 °F 51.8 °F 94% 29.85 in 2.0 mi North 6.9 mph - N/A Rain Heavy Rain
5:36 AM 53.6 °F 51.8 °F 94% 29.84 in 2.5 mi North 12.7 mph 16.1 mph N/A Rain Heavy Rain
5:53 AM 53.1 °F 51.1 °F 93% 29.87 in 2.0 mi North 10.4 mph - N/A Rain Heavy Rain
6:07 AM 53.6 °F 51.8 °F 94% 29.89 in 3.0 mi North 8.1 mph - 0.09 in Rain Heavy Rain
6:27 AM 53.6 °F 50.0 °F 88% 29.94 in 2.5 mi WNW 8.1 mph - N/A Rain Heavy Rain
6:46 AM 53.6 °F 50.0 °F 88% 29.87 in 3.0 mi NE 11.5 mph - 0.39 in Rain Heavy Rain
6:53 AM 53.1 °F 50.0 °F 89% 29.82 in 5.0 mi NE 12.7 mph 20.7 mph 0.41 in Rain Heavy Rain
7:08 AM 53.6 °F 48.2 °F 82% 29.89 in 10.0 mi North 11.5 mph 21.9 mph 0.02 in Rain Light Rain
7:17 AM 53.6 °F 48.2 °F 82% 29.89 in 10.0 mi NNE 12.7 mph 20.7 mph 0.02 in Rain Light Rain
7:53 AM 52.0 °F 48.9 °F 89% 29.86 in 10.0 mi NNE 15.0 mph 21.9 mph 0.03 in Rain Light Rain
8:53 AM 53.1 °F 48.9 °F 86% 29.84 in 7.0 mi NE 13.8 mph 21.9 mph 0.02 in Rain Rain
9:43 AM 53.6 °F 50.0 °F 88% 29.81 in 9.0 mi NE 12.7 mph 18.4 mph 0.04 in Rain Light Rain
10:53 AM 54.0 °F 50.0 °F 86% 29.85 in 10.0 mi NE 8.1 mph - 0.00 in   Overcast
11:53 AM 55.0 °F 50.0 °F 83% 29.82 in 10.0 mi NE 8.1 mph 21.9 mph N/A   Overcast
12:53 PM 55.0 °F 50.0 °F 83% 29.80 in 10.0 mi NNE 9.2 mph 17.3 mph 0.02 in Rain Light Rain
1:45 PM 55.4 °F 51.8 °F 88% 29.77 in 10.0 mi ENE 10.4 mph - 0.01 in Rain Light Rain
1:53 PM 55.0 °F 50.0 °F 83% 29.76 in 10.0 mi ENE 6.9 mph - 0.01 in   Overcast
2:08 PM 55.4 °F 50.0 °F 82% 29.77 in 10.0 mi ENE 8.1 mph - N/A   Overcast
2:53 PM 55.0 °F 50.0 °F 83% 29.75 in 10.0 mi ENE 11.5 mph - N/A   Overcast
3:53 PM 55.0 °F 51.1 °F 86% 29.73 in 4.0 mi ENE 10.4 mph - 0.00 in   Overcast
4:29 PM 53.6 °F 51.8 °F 94% 29.73 in 3.0 mi East 9.2 mph - N/A   Overcast
4:53 PM 54.0 °F 51.1 °F 90% 29.73 in 3.0 mi East 6.9 mph - 0.00 in Rain Light Rain
5:49 PM 53.6 °F 51.8 °F 94% 29.79 in 2.0 mi West 11.5 mph - 0.08 in Rain Heavy Rain
5:53 PM 54.0 °F 51.1 °F 90% 29.79 in 2.5 mi WNW 9.2 mph - 0.08 in Rain Rain
6:12 PM 53.6 °F 51.8 °F 94% 29.80 in 7.0 mi NW 8.1 mph - 0.04 in Rain Light Rain
6:53 PM 53.1 °F 50.0 °F 89% 29.82 in 7.0 mi NNW 8.1 mph - 0.07 in Rain Light Rain
7:53 PM 52.0 °F 48.9 °F 89% 29.82 in 10.0 mi North 9.2 mph - 0.00 in   Overcast
8:42 PM 51.8 °F 46.4 °F 82% 29.86 in 10.0 mi NNW 9.2 mph 17.3 mph N/A   Overcast
8:53 PM 51.1 °F 46.0 °F 83% 29.87 in 10.0 mi North 12.7 mph 19.6 mph N/A   Overcast
9:53 PM 50.0 °F 45.0 °F 83% 29.91 in 10.0 mi NNW 9.2 mph - N/A   Overcast
10:53 PM 48.9 °F 44.1 °F 83% 29.92 in 10.0 mi NNW 9.2 mph - N/A   Overcast
11:19 PM 48.2 °F 44.6 °F 87% 29.93 in 9.0 mi NNW 8.1 mph - N/A   Overcast
11:27 PM 48.2 °F 44.6 °F 87% 29.94 in 6.0 mi NNW 9.2 mph - N/A   Overcast
11:53 PM 48.0 °F 44.1 °F 86% 29.96 in 7.0 mi NNW 6.9 mph - N/A   Overcast
11:57 PM 48.2 °F 44.6 °F 87% 29.96 in 5.0 mi NNW 8.1 mph - 0.00 in Rain Light Rain